Miscellaneous Local Product
Issued by NWS Hastings, NE

Home | Current Version | Previous Version | Text Only | Print | Product List | Glossary On
Versions: 1 2 3 4 5 6 7 8 9 10 11 12 13 14 15 16 17 18 19 20 21 22 23 24 25 26 27 28 29 30 31 32 33 34 35 36 37 38 39 40 41 42 43 44 45 46 47 48 49 50
593
AXUS43 KGID 301702
MISGRI

GID CWA HOURLY WEATHER ROUNDUP
NATIONAL WEATHER SERVICE HASTINGS NE
1200 PM CDT FRI SEP 30 2016

NOTE: "FAIR" INDICATES FEW OR NO CLOUDS BELOW 12,000 FEET WITH NO
SIGNIFICANT WEATHER AND/OR OBSTRUCTIONS TO VISIBILITY.

...SOUTH CENTRAL NEBRASKA...

CITY           SKY/WX    TMP DP  RH WIND       PRES   REMARKS
GRAND ISLAND   SUNNY     66  46  48 S5        30.27F
HASTINGS       SUNNY     65  46  50 S9        30.27F
KEARNEY        MOSUNNY   64  46  52 S10       30.26F
ORD            SUNNY     66  45  46 SE10      30.25F
YORK           SUNNY     66  46  48 SE5       30.27F
AURORA         SUNNY     65  46  49 SE6       30.27F
LEXINGTON      CLOUDY    65  47  52 SE12      30.26F
HOLDREGE       CLOUDY    64  45  50 S10       30.27F
HEBRON         SUNNY     66  46  48 CALM      30.27F

...NEBRASKA PANHANDLE...

CITY           SKY/WX    TMP DP  RH WIND       PRES   REMARKS
CHADRON        MOSUNNY   67  45  45 S12       30.12F
ALLIANCE       MOSUNNY   65  44  46 SE12      30.18F
SCOTTSBLUFF    MOSUNNY   61  44  53 VRB6      30.20F
SIDNEY         CLOUDY    59  43  55 S7        30.22F

...WESTERN AND NORTH CENTRAL NEBRASKA...

CITY           SKY/WX    TMP DP  RH WIND       PRES   REMARKS
VALENTINE      PTSUNNY   66  45  46 S18       30.21F
AINSWORTH      MOSUNNY   61  48  62 SE12      30.24S
ONEILL         SUNNY     67  45  46 SE14      30.26F
BROKEN BOW     CLOUDY    63  47  55 S13       30.26F
IMPERIAL       MOSUNNY   64  45  49 SE14      30.22S
NORTH PLATTE   CLOUDY    64  46  52 S12       30.24F
MCCOOK         MOSUNNY   67  47  48 SE17      30.23F

...EASTERN NEBRASKA...

CITY           SKY/WX    TMP DP  RH WIND       PRES   REMARKS
NORFOLK        SUNNY     67  47  48 E6        30.27F
SO SIOUX CITY  SUNNY     68  52  56 VRB3      30.29F
TEKAMAH        SUNNY     68  47  46 E6        30.29F
COLUMBUS       SUNNY     66  45  45 CALM      30.28F
ALBION         SUNNY     66  45  47 SE10      30.27F
OMAHA EPPLEY   MOSUNNY   69  51  52 CALM      30.28F
OFFUTT AFB     SUNNY     69  51  52 NE7       30.27F
MILLARD        SUNNY     68  48  49 NE6       30.27F
LINCOLN        SUNNY     68  51  54 VRB3      30.28F
NEBRASKA CITY  SUNNY     68  42  39 E8        30.27F
BEATRICE       SUNNY     69  52  54 E3        30.26F HAZE
FALLS CITY     SUNNY     69  49  48 NE9       30.25F

...NORTHERN KANSAS...

CITY           SKY/WX    TMP DP  RH WIND       PRES   REMARKS
GOODLAND       MOSUNNY   64  46  52 SE18G26   30.20F
HILL CITY      SUNNY     65  50  58 SE9       30.26F
NORTON         SUNNY     64  46  52 E9        30.25F
PHILLIPSBURG   SUNNY     66  48  52 E9        30.26F
SMITH CENTER   SUNNY     66  46  48 CALM      30.27F
BELOIT         SUNNY     64  48  55 CALM      30.25F
HAYS           SUNNY     66  45  45 S10       30.26S
RUSSELL        SUNNY     66  50  56 SE9       30.24F
CONCORDIA      SUNNY     68  47  46 E6        30.26F
SALINA         SUNNY     69  49  48 VRB3      30.26F
TOPEKA         SUNNY     69  55  60 N6        30.24F



USA.gov is the U.S. government's official web portal to all federal, state and local government web resources and services.